This is the latest recevied weather packets stored in our database for station/object K4VEB. If no packets are shown the sender has not sent any weather packets the latest 10 day(s).
| Time | Temp. | Humidity | Pressure | Rain* | Wind** | Luminosity | Snow |
|---|---|---|---|---|---|---|---|
| 1778194649 | 30.56° C | 50% | 1012.9 hPa | 0 mm | - | 81 W/m² | - |
| 1778194346 | 30.56° C | 49% | 1013.1 hPa | 0 mm | - | 102 W/m² | - |
| 1778194041 | 31.11° C | 48% | 1012.9 hPa | 0 mm | - | 113 W/m² | - |
| 1778193738 | 31.11° C | 47% | 1013 hPa | 0 mm | - | 138 W/m² | - |
| 1778193434 | 31.67° C | 46% | 1012.9 hPa | 0 mm | - | 155 W/m² | - |
| 1778193132 | 31.67° C | 45% | 1013.1 hPa | 0 mm | - | 171 W/m² | - |
| 1778192828 | 31.67° C | 44% | 1013.2 hPa | 0 mm | - | 176 W/m² | - |
| 1778192524 | 31.67° C | 43% | 1013 hPa | 0 mm | - | 203 W/m² | - |
| 1778192221 | 31.67° C | 42% | 1013 hPa | 0 mm | - | 255 W/m² | - |
| 1778191917 | 31.67° C | 40% | 1013.1 hPa | 0 mm | - | 211 W/m² | - |
| 1778191614 | 31.67° C | 40% | 1013.1 hPa | 0 mm | - | 113 W/m² | - |
| 1778191313 | 31.67° C | 37% | 1013.1 hPa | 0 mm | - | 246 W/m² | - |
| 1778191008 | 32.22° C | 35% | 1013 hPa | 0 mm | - | 281 W/m² | - |
| 1778190706 | 32.22° C | 34% | 1013 hPa | 0 mm | - | 300 W/m² | - |
| 1778190403 | 32.22° C | 31% | 1013.2 hPa | 0 mm | - | 331 W/m² | - |
| 1778190100 | 32.22° C | 30% | 1013.1 hPa | 0 mm | - | 338 W/m² | - |
| 1778189795 | 32.22° C | 33% | 1013.3 hPa | 0 mm | - | 363 W/m² | - |
| 1778189493 | 32.78° C | 31% | 1013.3 hPa | 0 mm | - | 378 W/m² | - |
| 1778189189 | 32.78° C | 32% | 1013.1 hPa | 0 mm | - | 398 W/m² | - |
| 1778188886 | 32.78° C | 32% | 1013.1 hPa | 0 mm | - | 406 W/m² | - |
| 1778188583 | 32.78° C | 31% | 1013.3 hPa | 0 mm | - | 442 W/m² | - |
| 1778188278 | 32.78° C | 34% | 1013.4 hPa | 0 mm | - | 442 W/m² | - |
| 1778187976 | 33.33° C | 33% | 1013.5 hPa | 0 mm | - | 438 W/m² | - |
| 1778187673 | 33.33° C | 33% | 1013.1 hPa | 0 mm | - | 486 W/m² | - |
| 1778187369 | 33.33° C | 34% | 1013.1 hPa | 0 mm | - | 465 W/m² | - |
* Rain latest hour (hover to see other rain measurements)
** Current wind speed in m/s (hover to see current wind gust speed)